Regional Weather Roundup
Issued by NWS Sterling, VA

Home | Current Version | Previous Version | Graphics & Text | Print | Product List | Glossary On
Versions: 1 2 3 4 5 6 7 8 9 10 11 12 13 14 15 16 17 18 19 20 21 22 23 24 25 26 27 28 29 30 31 32 33 34 35 36 37 38 39 40 41 42 43 44 45 46 47 48 49 50
000
ASUS41 KLWX 241210
RWRLWX

REGIONAL WEATHER ROUNDUP
NATIONAL WEATHER SERVICE BALTIMORE MD/WASHINGTON DC
800 AM EDT SUN MAY 24 2015

Note: "FAIR" indicates few or no clouds below 12,000 feet
with no significant weather and/or obstructions to visibility.
 TC=TEMPERATURE CELSIUS

 * =Non NWS site. Station does not report precipitation (e.g. rain,
    snow, etc.), thunder, or fog.

DCZ001-MDZ009-015-VAZ040>042-051-053>054-241300-
WASHINGTON METRO

CITY           SKY/WX    TMP DP  RH WIND       PRES   REMARKS
WASHINGTON NAT MOSUNNY   63  52  67 S8        30.41R
DULLES         MOSUNNY   59  51  75 S5        30.40R
ANDREWS AFB    SUNNY     60  50  69 S8        30.39S
FT BELVOIR     SUNNY     58  55  88 VRB2      30.40S
QUANTICO       SUNNY     61  51  70 SW10      30.41S
COLLEGE PARK*  SUNNY     57  52  82 CALM      30.39S
LEESBURG*      SUNNY     57  52  82 S3        30.40S
MANASSAS*      SUNNY    N/A N/A N/A CALM      30.41R
GAITHERSBURG*  SUNNY     61  48  63 SW5       30.43R

$$

MDZ006>007-011-014-241300-
BALTIMORE METRO

CITY           SKY/WX    TMP DP  RH WIND       PRES   REMARKS
BWI AIRPORT    MOSUNNY   58  49  72 SW3       30.39S
MD SCIENCE CTR   N/A     60  47  61 MISG      30.40S
MARTIN STATE   SUNNY     63  55  77 S7        30.41R
ANNAPOLIS      SUNNY     61  49  64 S7        30.40R

$$

MDZ012-015-019>023-241300-
MARYLAND EASTERN SHORE

CITY           SKY/WX    TMP DP  RH WIND       PRES   REMARKS
OCEAN CITY     SUNNY     63  52  67 SW9       30.42S
SALISBURY      SUNNY     59  54  83 S6        30.42S
BAY BRIDGE AP*   N/A    N/A N/A N/A S8        30.40S
CAMBRIDGE*     SUNNY     59  55  88 CALM      30.41R
EASTON*        MOSUNNY   61  61 100 CALM      30.44S

$$

MDZ017>025-241300-
SOUTHERN MARYLAND

CITY           SKY/WX    TMP DP  RH WIND       PRES   REMARKS
PATUXENT RIVER MOSUNNY   62  50  64 S6        30.41R
ST INIGOES     SUNNY     63  51  65 S8        30.41R
LEONARDTOWN*   SUNNY     61  50  67 SW5       30.42S

$$

MDZ003>005-241300-
NORTH CENTRAL MARYLAND

CITY           SKY/WX    TMP DP  RH WIND       PRES   REMARKS
FREDERICK*     SUNNY     55  52  88 CALM      30.42R
HAGERSTOWN APT SUNNY     59  45  59 CALM      30.39R
WESTMINSTER*   SUNNY     59  48  67 S6        30.38S

$$

MDZ501>502-241300-
WESTERN MARYLAND

CITY           SKY/WX    TMP DP  RH WIND       PRES   REMARKS
OAKLAND*       SUNNY     59  43  55 S6        30.42R
CUMBERLAND*    SUNNY     50  43  76 CALM      30.45R

$$

VAZ025>031-241300-
SHENANDOAH VALLEY

CITY           SKY/WX    TMP DP  RH WIND       PRES   REMARKS
WINCHESTER*    SUNNY     57  46  67 CALM      30.39R
FRONT ROYAL*   FAIR      55  52  88 CALM      30.38S
LURAY*         FAIR      55  54  94 S3        30.39S
NEW MARKET*    FAIR      53  50  90 CALM      30.40R
STAUNTON*      SUNNY     54  51  90 CALM      30.42R
WAYNESBORO*    FAIR      55  49  80 SW3       30.41R

$$

WVZ021-048>050-054>055-241300-
EASTERN WEST VIRGINIA PANHANDLE

CITY           SKY/WX    TMP DP  RH WIND       PRES   REMARKS
MARTINSBURG    SUNNY     55  47  74 CALM      30.39S
PETERSBURG*    SUNNY     50  45  84 CALM      30.42S

$$

VAZ036>039-050-241300-
CENTRAL FOOTHILLS

CITY           SKY/WX    TMP DP  RH WIND       PRES   REMARKS
CHARLOTTESVILL SUNNY     57  50  77 SW3       30.39S
CULPEPER*      SUNNY     57  53  84 SW3       30.41R
ORANGE*        SUNNY     59  54  82 SE3       30.41S
GORDONSVILLE*  FAIR      57  52  85 S6        30.40S
WARRENTON*     FAIR      60  55  83 SW5       30.39R

$$

VAZ055>057-241300-
NORTH AND CENTRAL PIEDMONT

CITY           SKY/WX    TMP DP  RH WIND       PRES   REMARKS
FREDERICKSBRG* SUNNY     60  53  76 CALM      30.40S
STAFFORD*      SUNNY     59  51  75 S3        30.44S

$$

NCZ024-NYZ072-PAZ021-071-VAZ022-071-241300-
OTHER REGIONAL OBSERVATIONS

CITY           SKY/WX    TMP DP  RH WIND       PRES   REMARKS
NEW YORK CITY  SUNNY     59  43  55 MISG      30.39S
PHILADELPHIA   MOSUNNY   59  51  75 SW9       30.40S
PITTSBURGH     SUNNY     56  44  64 CALM      30.36R
ROANOKE        SUNNY     56  50  80 CALM      30.44R
RICHMOND       MOSUNNY   61  52  72 S8        30.42R
RALEIGH        MOSUNNY   63  56  78 CALM      30.43R

$$

ANZ530>537-241300-
MARINE OBSERVATIONS

STATION/POSITION TIME  TEMP    WIND        PRES
                       AIR SEA DIR/SP/G
                 (UTC) (F)     (DEG/KT/KT) (MB)
THOMAS PT LIGHT  1200   61 64  200/ 11/ 12 1030.3R
BALT KEY BRIDGE  1100   58     140/  6/  7 1028.9S
LEWISETTA        1100   60 67              1029.4R
SOLOMONS ISLAND  1100      67                N/A
PINEY POINT      1100          210/  6/  7   N/A

$$



USA.gov is the U.S. government's official web portal to all federal, state and local government web resources and services.